This demonstration page uses our WeatherBlox Daily Observations layout. Learn more.

Left ArrowRight Arrow

40.97296, -117.73568

Hourly Observations for August 22, 2022

Temp ( °F °C ) Dew Point ( °F °C ) Humidity (%) Winds ( mph kmh ) Pressure ( in mb ) Visibility ( mi km ) Precip ( " mm )
12:56 am 00:56 Clear 65 18.3 28 -2.2 25 25 Calm 29.94 1014 10 16 0.00 0.00
1:56 am 01:56 Clear 64 17.8 30 -1.1 28 28 SE 6 9 29.94 1014 10 16 0.00 0.00
2:56 am 02:56 Clear 66 18.9 31 -0.6 27 27 Calm 29.95 1014 10 16 0.00 0.00
3:56 am 03:56 Clear 55 12.8 31 -0.6 40 40 Calm 29.97 1015 10 16 0.00 0.00
4:56 am 04:56 Clear 55 12.8 30 -1.1 38 38 SE 7 11 29.97 1015 10 16 0.00 0.00
5:56 am 05:56 Clear 55 12.8 31 -0.6 40 40 SSE 3 6 29.98 1015 10 16 0.00 0.00
6:56 am 06:56 Sunny 57 13.9 32 0 38 38 SE 5 7 30.01 1016 10 16 0.00 0.00
7:56 am 07:56 Sunny 68 20 35 1.7 30 30 SSW 3 6 30.02 1017 10 16 0.00 0.00
8:56 am 08:56 Sunny 75 23.9 35 1.7 23 23 Calm 30.01 1016 10 16 0.00 0.00
9:56 am 09:56 Sunny 86 30 37 2.8 18 18 VRB 5 7 29.99 1016 10 16 0.00 0.00
10:56 am 10:56 Sunny 89 31.7 35 1.7 15 15 W 10 17 29.99 1016 10 16 0.00 0.00
11:56 am 11:56 undefined N/A N/A N/A undefined N/A 30.25 1024 N/A 0.00 0.00
12:56 pm 12:56 Sunny 94 34.4 31 -0.6 11 11 WSW 9 15 29.96 1015 10 16 0.00 0.00
1:56 pm 13:56 Sunny 96 35.6 29 -1.7 9 9 WSW 15 24 29.94 1014 10 16 0.00 0.00
2:56 pm 14:56 Sunny 96 35.6 29 -1.7 9 9 Calm 29.91 1013 10 16 0.00 0.00
3:56 pm 15:56 Sunny 97 36.1 29 -1.7 9 9 W 13 20 29.91 1013 10 16 0.00 0.00
4:56 pm 16:56 Sunny 96 35.6 20 -6.7 6 6 NW 10 17 29.91 1013 10 16 0.00 0.00
5:56 pm 17:56 Sunny 94 34.4 19 -7.2 7 7 WNW 12 19 29.90 1013 10 16 0.00 0.00
6:56 pm 18:56 Sunny 91 32.8 18 -7.8 7 7 WNW 13 20 29.90 1013 10 16 0.00 0.00
7:56 pm 19:56 Clear 79 26.1 20 -6.7 11 11 W 5 7 29.91 1013 10 16 0.00 0.00
8:56 pm 20:56 Clear 72 22.2 20 -6.7 14 14 WSW 7 11 29.92 1013 10 16 0.00 0.00
9:56 pm 21:56 Clear 72 22.2 25 -3.9 17 17 Calm 29.91 1013 10 16 0.00 0.00
10:56 pm 22:56 Clear 61 16.1 23 -5 23 23 SSW 5 7 29.91 1013 10 16 0.00 0.00
11:56 pm 23:56 Clear 61 16.1 23 -5 23 23 SSE 9 15 29.91 1013 10 16 0.00 0.00

Powered by AerisWeather